owner,sensor,date,latitude,longitude,air_pressure(mBar),qcFlag 
LOOP,urn:ioos:station:wmo:lopl1:1,2016-06-01T00:49:00Z,28.8850,-90.0250,1013.1,11111222 
LOOP,urn:ioos:station:wmo:lopl1:1,2016-06-01T01:49:00Z,28.8850,-90.0250,1014.1,11111222 
LOOP,urn:ioos:station:wmo:lopl1:1,2016-06-01T02:49:00Z,28.8850,-90.0250,1014.1,11111222 
LOOP,urn:ioos:station:wmo:lopl1:1,2016-06-01T03:49:00Z,28.8850,-90.0250,1015.1,11111222 
LOOP,urn:ioos:station:wmo:lopl1:1,2016-06-01T05:04:00Z,28.8850,-90.0250,1015.1,11111222 
LOOP,urn:ioos:station:wmo:lopl1:1,2016-06-01T06:04:00Z,28.8850,-90.0250,1014.1,11111222 
LOOP,urn:ioos:station:wmo:lopl1:1,2016-06-01T07:04:00Z,28.8850,-90.0250,1014.1,11111222 
LOOP,urn:ioos:station:wmo:lopl1:1,2016-06-01T08:04:00Z,28.8850,-90.0250,1014.1,11111222 
LOOP,urn:ioos:station:wmo:lopl1:1,2016-06-01T09:04:00Z,28.8850,-90.0250,1013.1,11111222 
LOOP,urn:ioos:station:wmo:lopl1:1,2016-06-01T10:04:00Z,28.8850,-90.0250,1014.1,11111222 
LOOP,urn:ioos:station:wmo:lopl1:1,2016-06-01T11:04:00Z,28.8850,-90.0250,1014.1,11111222 
LOOP,urn:ioos:station:wmo:lopl1:1,2016-06-01T12:04:00Z,28.8850,-90.0250,1014.1,11111222 
LOOP,urn:ioos:station:wmo:lopl1:1,2016-06-01T13:04:00Z,28.8850,-90.0250,1015.1,11111222 
LOOP,urn:ioos:station:wmo:lopl1:1,2016-06-01T14:04:00Z,28.8850,-90.0250,1016.1,11111222 
LOOP,urn:ioos:station:wmo:lopl1:1,2016-06-01T15:04:00Z,28.8850,-90.0250,1016.1,11111222 
LOOP,urn:ioos:station:wmo:lopl1:1,2016-06-01T16:04:00Z,28.8850,-90.0250,1016.1,11111222 
LOOP,urn:ioos:station:wmo:lopl1:1,2016-06-01T17:04:00Z,28.8850,-90.0250,1017.1,11111222 
LOOP,urn:ioos:station:wmo:lopl1:1,2016-06-01T18:04:00Z,28.8850,-90.0250,1016.1,11111222 
LOOP,urn:ioos:station:wmo:lopl1:1,2016-06-01T19:04:00Z,28.8850,-90.0250,1016.1,11111222 
LOOP,urn:ioos:station:wmo:lopl1:1,2016-06-01T20:04:00Z,28.8850,-90.0250,1015.1,11111222 
LOOP,urn:ioos:station:wmo:lopl1:1,2016-06-01T21:04:00Z,28.8850,-90.0250,1015.1,11111222 
LOOP,urn:ioos:station:wmo:lopl1:1,2016-06-01T22:04:00Z,28.8850,-90.0250,1014.1,11111222 
LOOP,urn:ioos:station:wmo:lopl1:1,2016-06-01T23:04:00Z,28.8850,-90.0250,1014.1,11111222 
LOOP,urn:ioos:station:wmo:lopl1:1,2016-06-02T00:04:00Z,28.8850,-90.0250,1014.1,11111222 
LOOP,urn:ioos:station:wmo:lopl1:1,2016-06-02T01:04:00Z,28.8850,-90.0250,1014.1,11111222 
LOOP,urn:ioos:station:wmo:lopl1:1,2016-06-02T02:04:00Z,28.8850,-90.0250,1015.1,11111222 
LOOP,urn:ioos:station:wmo:lopl1:1,2016-06-02T03:04:00Z,28.8850,-90.0250,1015.1,11111222 
LOOP,urn:ioos:station:wmo:lopl1:1,2016-06-02T04:04:00Z,28.8850,-90.0250,1015.1,11111222 
LOOP,urn:ioos:station:wmo:lopl1:1,2016-06-02T05:09:00Z,28.8850,-90.0250,1016.1,11111222 
LOOP,urn:ioos:station:wmo:lopl1:1,2016-06-02T06:09:00Z,28.8850,-90.0250,1015.1,11111222 
LOOP,urn:ioos:station:wmo:lopl1:1,2016-06-02T07:09:00Z,28.8850,-90.0250,1015.1,11111222 
LOOP,urn:ioos:station:wmo:lopl1:1,2016-06-02T08:09:00Z,28.8850,-90.0250,1015.1,11111222 
LOOP,urn:ioos:station:wmo:lopl1:1,2016-06-02T09:09:00Z,28.8850,-90.0250,1015.1,11111222 
LOOP,urn:ioos:station:wmo:lopl1:1,2016-06-02T10:09:00Z,28.8850,-90.0250,1015.1,11111222 
LOOP,urn:ioos:station:wmo:lopl1:1,2016-06-02T11:09:00Z,28.8850,-90.0250,1016.1,11111222 
LOOP,urn:ioos:station:wmo:lopl1:1,2016-06-02T12:09:00Z,28.8850,-90.0250,1016.1,11111222 
LOOP,urn:ioos:station:wmo:lopl1:1,2016-06-02T13:09:00Z,28.8850,-90.0250,1016.1,11111222 
LOOP,urn:ioos:station:wmo:lopl1:1,2016-06-02T14:09:00Z,28.8850,-90.0250,1017.1,11111222 
LOOP,urn:ioos:station:wmo:lopl1:1,2016-06-02T15:09:00Z,28.8850,-90.0250,1017.1,11111222 
LOOP,urn:ioos:station:wmo:lopl1:1,2016-06-02T16:09:00Z,28.8850,-90.0250,1017.1,11111222 
LOOP,urn:ioos:station:wmo:lopl1:1,2016-06-02T17:09:00Z,28.8850,-90.0250,1017.1,11111222 
LOOP,urn:ioos:station:wmo:lopl1:1,2016-06-02T18:09:00Z,28.8850,-90.0250,1016.1,11111222 
LOOP,urn:ioos:station:wmo:lopl1:1,2016-06-02T19:19:00Z,28.8850,-90.0250,1016.1,11111222 
LOOP,urn:ioos:station:wmo:lopl1:1,2016-06-02T20:20:00Z,28.8850,-90.0250,1015.1,11111222 
LOOP,urn:ioos:station:wmo:lopl1:1,2016-06-02T21:25:00Z,28.8850,-90.0250,1015.1,11111222 
LOOP,urn:ioos:station:wmo:lopl1:1,2016-06-02T22:25:00Z,28.8850,-90.0250,1015.1,11111222 
LOOP,urn:ioos:station:wmo:lopl1:1,2016-06-02T23:25:00Z,28.8850,-90.0250,1015.1,11111222 
LOOP,urn:ioos:station:wmo:lopl1:1,2016-06-03T00:25:00Z,28.8850,-90.0250,1015.1,11111222 
LOOP,urn:ioos:station:wmo:lopl1:1,2016-06-03T01:25:00Z,28.8850,-90.0250,1015.1,11111222 
LOOP,urn:ioos:station:wmo:lopl1:1,2016-06-03T02:25:00Z,28.8850,-90.0250,1016.1,11111222 
LOOP,urn:ioos:station:wmo:lopl1:1,2016-06-03T03:25:00Z,28.8850,-90.0250,1016.1,11111222 
LOOP,urn:ioos:station:wmo:lopl1:1,2016-06-03T04:25:00Z,28.8850,-90.0250,1017.1,11111222 
LOOP,urn:ioos:station:wmo:lopl1:1,2016-06-03T05:25:00Z,28.8850,-90.0250,1016.1,11111222 
LOOP,urn:ioos:station:wmo:lopl1:1,2016-06-03T06:25:00Z,28.8850,-90.0250,1016.1,11111222 
LOOP,urn:ioos:station:wmo:lopl1:1,2016-06-03T07:25:00Z,28.8850,-90.0250,1015.1,11111222 
LOOP,urn:ioos:station:wmo:lopl1:1,2016-06-03T08:25:00Z,28.8850,-90.0250,1015.1,11111222 
LOOP,urn:ioos:station:wmo:lopl1:1,2016-06-03T09:25:00Z,28.8850,-90.0250,1014.1,11111222 
LOOP,urn:ioos:station:wmo:lopl1:1,2016-06-03T10:25:00Z,28.8850,-90.0250,1014.1,11111222 
LOOP,urn:ioos:station:wmo:lopl1:1,2016-06-03T11:25:00Z,28.8850,-90.0250,1015.1,11111222 
LOOP,urn:ioos:station:wmo:lopl1:1,2016-06-03T12:25:00Z,28.8850,-90.0250,1015.1,11111222 
LOOP,urn:ioos:station:wmo:lopl1:1,2016-06-03T13:25:00Z,28.8850,-90.0250,1015.1,11111222 
LOOP,urn:ioos:station:wmo:lopl1:1,2016-06-03T14:25:00Z,28.8850,-90.0250,1015.1,11111222 
LOOP,urn:ioos:station:wmo:lopl1:1,2016-06-03T15:25:00Z,28.8850,-90.0250,1015.1,11111222 
LOOP,urn:ioos:station:wmo:lopl1:1,2016-06-03T16:25:00Z,28.8850,-90.0250,1015.1,11111222 
LOOP,urn:ioos:station:wmo:lopl1:1,2016-06-03T17:25:00Z,28.8850,-90.0250,1016.1,11111222 
LOOP,urn:ioos:station:wmo:lopl1:1,2016-06-03T18:25:00Z,28.8850,-90.0250,1015.1,11111222 
LOOP,urn:ioos:station:wmo:lopl1:1,2016-06-03T19:25:00Z,28.8850,-90.0250,1015.1,11111222 
LOOP,urn:ioos:station:wmo:lopl1:1,2016-06-03T20:25:00Z,28.8850,-90.0250,1014.1,11111222 
LOOP,urn:ioos:station:wmo:lopl1:1,2016-06-03T21:25:00Z,28.8850,-90.0250,1013.1,11111222 
LOOP,urn:ioos:station:wmo:lopl1:1,2016-06-03T22:40:00Z,28.8850,-90.0250,1013.1,11111222 
LOOP,urn:ioos:station:wmo:lopl1:1,2016-06-03T23:40:00Z,28.8850,-90.0250,1013.1,11111222 
LOOP,urn:ioos:station:wmo:lopl1:1,2016-06-04T00:40:00Z,28.8850,-90.0250,1014.1,11111222 
LOOP,urn:ioos:station:wmo:lopl1:1,2016-06-04T01:40:00Z,28.8850,-90.0250,1013.1,11111222 
LOOP,urn:ioos:station:wmo:lopl1:1,2016-06-04T02:40:00Z,28.8850,-90.0250,1014.1,11111222 
LOOP,urn:ioos:station:wmo:lopl1:1,2016-06-04T03:50:00Z,28.8850,-90.0250,1015.1,11111222 
LOOP,urn:ioos:station:wmo:lopl1:1,2016-06-04T04:50:00Z,28.8850,-90.0250,1014.1,11111222 
LOOP,urn:ioos:station:wmo:lopl1:1,2016-06-04T05:50:00Z,28.8850,-90.0250,1014.1,11111222 
LOOP,urn:ioos:station:wmo:lopl1:1,2016-06-04T06:50:00Z,28.8850,-90.0250,1013.1,11111222 
LOOP,urn:ioos:station:wmo:lopl1:1,2016-06-04T07:50:00Z,28.8850,-90.0250,1012.1,11111222 
LOOP,urn:ioos:station:wmo:lopl1:1,2016-06-04T08:50:00Z,28.8850,-90.0250,1012.1,11111222 
LOOP,urn:ioos:station:wmo:lopl1:1,2016-06-04T09:50:00Z,28.8850,-90.0250,1012.1,11111222 
LOOP,urn:ioos:station:wmo:lopl1:1,2016-06-04T10:50:00Z,28.8850,-90.0250,1012.1,11111222 
LOOP,urn:ioos:station:wmo:lopl1:1,2016-06-04T11:50:00Z,28.8850,-90.0250,1012.1,11111222 
LOOP,urn:ioos:station:wmo:lopl1:1,2016-06-04T12:50:00Z,28.8850,-90.0250,1013.1,11111222 
LOOP,urn:ioos:station:wmo:lopl1:1,2016-06-04T13:50:00Z,28.8850,-90.0250,1013.1,11111222 
LOOP,urn:ioos:station:wmo:lopl1:1,2016-06-04T14:50:00Z,28.8850,-90.0250,1013.1,11111222 
LOOP,urn:ioos:station:wmo:lopl1:1,2016-06-04T15:50:00Z,28.8850,-90.0250,1012.1,11111222 
LOOP,urn:ioos:station:wmo:lopl1:1,2016-06-04T16:50:00Z,28.8850,-90.0250,1012.1,11111222 
LOOP,urn:ioos:station:wmo:lopl1:1,2016-06-04T17:50:00Z,28.8850,-90.0250,1012.1,11111222 
LOOP,urn:ioos:station:wmo:lopl1:1,2016-06-04T18:55:00Z,28.8850,-90.0250,1012.1,11111222 
LOOP,urn:ioos:station:wmo:lopl1:1,2016-06-04T19:55:00Z,28.8850,-90.0250,1012.1,11111222 
LOOP,urn:ioos:station:wmo:lopl1:1,2016-06-04T20:55:00Z,28.8850,-90.0250,1011.1,11111222 
LOOP,urn:ioos:station:wmo:lopl1:1,2016-06-04T21:55:00Z,28.8850,-90.0250,1010.1,11111222 
LOOP,urn:ioos:station:wmo:lopl1:1,2016-06-04T22:55:00Z,28.8850,-90.0250,1010.1,11111222 
LOOP,urn:ioos:station:wmo:lopl1:1,2016-06-04T23:55:00Z,28.8850,-90.0250,1010.1,11111222 
LOOP,urn:ioos:station:wmo:lopl1:1,2016-06-05T00:55:00Z,28.8850,-90.0250,1011.1,11111222 
LOOP,urn:ioos:station:wmo:lopl1:1,2016-06-05T01:55:00Z,28.8850,-90.0250,1012.1,11111222 
LOOP,urn:ioos:station:wmo:lopl1:1,2016-06-05T02:55:00Z,28.8850,-90.0250,1012.1,11111222 
LOOP,urn:ioos:station:wmo:lopl1:1,2016-06-05T03:55:00Z,28.8850,-90.0250,1012.1,11111222 
LOOP,urn:ioos:station:wmo:lopl1:1,2016-06-05T04:55:00Z,28.8850,-90.0250,1012.1,11111222 
LOOP,urn:ioos:station:wmo:lopl1:1,2016-06-05T05:55:00Z,28.8850,-90.0250,1011.1,11111222 
LOOP,urn:ioos:station:wmo:lopl1:1,2016-06-05T07:05:00Z,28.8850,-90.0250,1009.1,11111222 
LOOP,urn:ioos:station:wmo:lopl1:1,2016-06-05T08:05:00Z,28.8850,-90.0250,1008.1,11111222 
LOOP,urn:ioos:station:wmo:lopl1:1,2016-06-05T09:05:00Z,28.8850,-90.0250,1008.1,11111222 
LOOP,urn:ioos:station:wmo:lopl1:1,2016-06-05T10:05:00Z,28.8850,-90.0250,1009.1,11111222 
LOOP,urn:ioos:station:wmo:lopl1:1,2016-06-05T11:05:00Z,28.8850,-90.0250,1010.1,11111222 
LOOP,urn:ioos:station:wmo:lopl1:1,2016-06-05T12:05:00Z,28.8850,-90.0250,1009.1,11111222 
LOOP,urn:ioos:station:wmo:lopl1:1,2016-06-05T13:05:00Z,28.8850,-90.0250,1010.1,11111222 
LOOP,urn:ioos:station:wmo:lopl1:1,2016-06-05T14:05:00Z,28.8850,-90.0250,1010.1,11111222 
LOOP,urn:ioos:station:wmo:lopl1:1,2016-06-05T15:05:00Z,28.8850,-90.0250,1010.1,11111222 
LOOP,urn:ioos:station:wmo:lopl1:1,2016-06-05T16:10:00Z,28.8850,-90.0250,1010.1,11111222 
LOOP,urn:ioos:station:wmo:lopl1:1,2016-06-05T17:10:00Z,28.8850,-90.0250,1010.1,11111222 
LOOP,urn:ioos:station:wmo:lopl1:1,2016-06-05T18:10:00Z,28.8850,-90.0250,1009.1,11111222 
LOOP,urn:ioos:station:wmo:lopl1:1,2016-06-05T19:10:00Z,28.8850,-90.0250,1009.1,11111222 
LOOP,urn:ioos:station:wmo:lopl1:1,2016-06-05T20:10:00Z,28.8850,-90.0250,1009.1,11111222 
LOOP,urn:ioos:station:wmo:lopl1:1,2016-06-05T21:10:00Z,28.8850,-90.0250,1009.1,11111222 
LOOP,urn:ioos:station:wmo:lopl1:1,2016-06-05T22:10:00Z,28.8850,-90.0250,1009.1,11111222 
LOOP,urn:ioos:station:wmo:lopl1:1,2016-06-05T23:10:00Z,28.8850,-90.0250,1009.1,11111222 
LOOP,urn:ioos:station:wmo:lopl1:1,2016-06-06T00:10:00Z,28.8850,-90.0250,1009.1,11111222 
LOOP,urn:ioos:station:wmo:lopl1:1,2016-06-06T01:10:00Z,28.8850,-90.0250,1009.1,11111222 
LOOP,urn:ioos:station:wmo:lopl1:1,2016-06-06T02:10:00Z,28.8850,-90.0250,1009.1,11111222 
LOOP,urn:ioos:station:wmo:lopl1:1,2016-06-06T03:10:00Z,28.8850,-90.0250,1009.1,11111222 
LOOP,urn:ioos:station:wmo:lopl1:1,2016-06-06T04:11:00Z,28.8850,-90.0250,1009.1,11111222 
LOOP,urn:ioos:station:wmo:lopl1:1,2016-06-06T05:11:00Z,28.8850,-90.0250,1009.1,11111222 
LOOP,urn:ioos:station:wmo:lopl1:1,2016-06-06T06:11:00Z,28.8850,-90.0250,1009.1,11111222 
LOOP,urn:ioos:station:wmo:lopl1:1,2016-06-06T07:11:00Z,28.8850,-90.0250,1008.1,11111222 
LOOP,urn:ioos:station:wmo:lopl1:1,2016-06-06T08:11:00Z,28.8850,-90.0250,1007.1,11111222 
LOOP,urn:ioos:station:wmo:lopl1:1,2016-06-06T09:11:00Z,28.8850,-90.0250,1007.1,11111222 
LOOP,urn:ioos:station:wmo:lopl1:1,2016-06-06T10:11:00Z,28.8850,-90.0250,1007.1,11111222 
LOOP,urn:ioos:station:wmo:lopl1:1,2016-06-06T11:11:00Z,28.8850,-90.0250,1007.1,11111222 
LOOP,urn:ioos:station:wmo:lopl1:1,2016-06-06T12:11:00Z,28.8850,-90.0250,1007.1,11111222 
LOOP,urn:ioos:station:wmo:lopl1:1,2016-06-06T13:16:00Z,28.8850,-90.0250,1007.1,11111222 
LOOP,urn:ioos:station:wmo:lopl1:1,2016-06-06T14:16:00Z,28.8850,-90.0250,1007.1,11111222 
LOOP,urn:ioos:station:wmo:lopl1:1,2016-06-06T15:16:00Z,28.8850,-90.0250,1007.1,11111222 
LOOP,urn:ioos:station:wmo:lopl1:1,2016-06-06T16:16:00Z,28.8850,-90.0250,1007.1,11111222 
LOOP,urn:ioos:station:wmo:lopl1:1,2016-06-06T17:16:00Z,28.8850,-90.0250,1007.1,11111222 
LOOP,urn:ioos:station:wmo:lopl1:1,2016-06-06T18:16:00Z,28.8850,-90.0250,1007.1,11111222 
LOOP,urn:ioos:station:wmo:lopl1:1,2016-06-06T19:26:00Z,28.8850,-90.0250,1007.1,11111222 
LOOP,urn:ioos:station:wmo:lopl1:1,2016-06-06T20:26:00Z,28.8850,-90.0250,1007.1,11111222 
LOOP,urn:ioos:station:wmo:lopl1:1,2016-06-06T21:26:00Z,28.8850,-90.0250,1006.1,11111222 
LOOP,urn:ioos:station:wmo:lopl1:1,2016-06-06T22:26:00Z,28.8850,-90.0250,1006.1,11111222 
LOOP,urn:ioos:station:wmo:lopl1:1,2016-06-06T23:26:00Z,28.8850,-90.0250,1007.1,11111222 
LOOP,urn:ioos:station:wmo:lopl1:1,2016-06-07T00:26:00Z,28.8850,-90.0250,1007.1,11111222 
LOOP,urn:ioos:station:wmo:lopl1:1,2016-06-07T01:26:00Z,28.8850,-90.0250,1007.1,11111222 
LOOP,urn:ioos:station:wmo:lopl1:1,2016-06-07T02:36:00Z,28.8850,-90.0250,1008.1,11111222 
LOOP,urn:ioos:station:wmo:lopl1:1,2016-06-07T03:36:00Z,28.8850,-90.0250,1009.1,11111222 
LOOP,urn:ioos:station:wmo:lopl1:1,2016-06-07T04:36:00Z,28.8850,-90.0250,1009.1,11111222 
LOOP,urn:ioos:station:wmo:lopl1:1,2016-06-07T05:36:00Z,28.8850,-90.0250,1009.1,11111222 
LOOP,urn:ioos:station:wmo:lopl1:1,2016-06-07T06:36:00Z,28.8850,-90.0250,1009.1,11111222 
LOOP,urn:ioos:station:wmo:lopl1:1,2016-06-07T07:36:00Z,28.8850,-90.0250,1008.1,11111222 
LOOP,urn:ioos:station:wmo:lopl1:1,2016-06-07T08:51:00Z,28.8850,-90.0250,1008.1,11111222 
LOOP,urn:ioos:station:wmo:lopl1:1,2016-06-07T09:51:00Z,28.8850,-90.0250,1008.1,11111222 
LOOP,urn:ioos:station:wmo:lopl1:1,2016-06-07T10:51:00Z,28.8850,-90.0250,1009.1,11111222 
LOOP,urn:ioos:station:wmo:lopl1:1,2016-06-07T11:51:00Z,28.8850,-90.0250,1009.1,11111222 
LOOP,urn:ioos:station:wmo:lopl1:1,2016-06-07T12:01:00Z,28.8850,-90.0250,1009.1,11111222 
LOOP,urn:ioos:station:wmo:lopl1:1,2016-06-07T13:01:00Z,28.8850,-90.0250,1010.1,11111222 
LOOP,urn:ioos:station:wmo:lopl1:1,2016-06-07T14:06:00Z,28.8850,-90.0250,1010.1,11111222 
LOOP,urn:ioos:station:wmo:lopl1:1,2016-06-07T15:06:00Z,28.8850,-90.0250,1010.1,11111222 
LOOP,urn:ioos:station:wmo:lopl1:1,2016-06-07T16:06:00Z,28.8850,-90.0250,1010.1,11111222 
LOOP,urn:ioos:station:wmo:lopl1:1,2016-06-07T17:06:00Z,28.8850,-90.0250,1011.1,11111222 
LOOP,urn:ioos:station:wmo:lopl1:1,2016-06-07T18:06:00Z,28.8850,-90.0250,1011.1,11111222 
LOOP,urn:ioos:station:wmo:lopl1:1,2016-06-07T19:06:00Z,28.8850,-90.0250,1010.1,11111222 
LOOP,urn:ioos:station:wmo:lopl1:1,2016-06-07T20:06:00Z,28.8850,-90.0250,1010.1,11111222 
LOOP,urn:ioos:station:wmo:lopl1:1,2016-06-07T21:06:00Z,28.8850,-90.0250,1010.1,11111222 
LOOP,urn:ioos:station:wmo:lopl1:1,2016-06-07T22:06:00Z,28.8850,-90.0250,1010.1,11111222 
LOOP,urn:ioos:station:wmo:lopl1:1,2016-06-07T23:06:00Z,28.8850,-90.0250,1010.1,11111222 
LOOP,urn:ioos:station:wmo:lopl1:1,2016-06-08T00:06:00Z,28.8850,-90.0250,1010.1,11111222 
LOOP,urn:ioos:station:wmo:lopl1:1,2016-06-08T01:06:00Z,28.8850,-90.0250,1011.1,11111222 
LOOP,urn:ioos:station:wmo:lopl1:1,2016-06-08T02:06:00Z,28.8850,-90.0250,1011.1,11111222 
LOOP,urn:ioos:station:wmo:lopl1:1,2016-06-08T03:06:00Z,28.8850,-90.0250,1011.1,11111222 
LOOP,urn:ioos:station:wmo:lopl1:1,2016-06-08T04:16:00Z,28.8850,-90.0250,1012.1,11111222 
LOOP,urn:ioos:station:wmo:lopl1:1,2016-06-08T05:16:00Z,28.8850,-90.0250,1012.1,11111222 
LOOP,urn:ioos:station:wmo:lopl1:1,2016-06-08T06:16:00Z,28.8850,-90.0250,1012.1,11111222 
LOOP,urn:ioos:station:wmo:lopl1:1,2016-06-08T07:16:00Z,28.8850,-90.0250,1011.1,11111222 
LOOP,urn:ioos:station:wmo:lopl1:1,2016-06-08T08:16:00Z,28.8850,-90.0250,1011.1,11111222 
LOOP,urn:ioos:station:wmo:lopl1:1,2016-06-08T09:16:00Z,28.8850,-90.0250,1011.1,11111222 
LOOP,urn:ioos:station:wmo:lopl1:1,2016-06-08T10:31:00Z,28.8850,-90.0250,1012.1,11111222 
LOOP,urn:ioos:station:wmo:lopl1:1,2016-06-08T11:31:00Z,28.8850,-90.0250,1012.1,11111222 
LOOP,urn:ioos:station:wmo:lopl1:1,2016-06-08T12:31:00Z,28.8850,-90.0250,1012.1,11111222 
LOOP,urn:ioos:station:wmo:lopl1:1,2016-06-08T13:31:00Z,28.8850,-90.0250,1013.1,11111222 
LOOP,urn:ioos:station:wmo:lopl1:1,2016-06-08T14:31:00Z,28.8850,-90.0250,1013.1,11111222 
LOOP,urn:ioos:station:wmo:lopl1:1,2016-06-08T15:31:00Z,28.8850,-90.0250,1013.1,11111222 
LOOP,urn:ioos:station:wmo:lopl1:1,2016-06-08T16:31:00Z,28.8850,-90.0250,1013.1,11111222 
LOOP,urn:ioos:station:wmo:lopl1:1,2016-06-08T17:31:00Z,28.8850,-90.0250,1013.1,11111222 
LOOP,urn:ioos:station:wmo:lopl1:1,2016-06-08T18:31:00Z,28.8850,-90.0250,1013.1,11111222 
LOOP,urn:ioos:station:wmo:lopl1:1,2016-06-08T19:31:00Z,28.8850,-90.0250,1012.1,11111222 
LOOP,urn:ioos:station:wmo:lopl1:1,2016-06-08T20:31:00Z,28.8850,-90.0250,1013.1,11111222 
LOOP,urn:ioos:station:wmo:lopl1:1,2016-06-08T21:31:00Z,28.8850,-90.0250,1012.1,11111222 
LOOP,urn:ioos:station:wmo:lopl1:1,2016-06-08T22:31:00Z,28.8850,-90.0250,1012.1,11111222 
LOOP,urn:ioos:station:wmo:lopl1:1,2016-06-08T23:31:00Z,28.8850,-90.0250,1012.1,11111222 
LOOP,urn:ioos:station:wmo:lopl1:1,2016-06-09T00:36:00Z,28.8850,-90.0250,1013.1,11111222 
LOOP,urn:ioos:station:wmo:lopl1:1,2016-06-09T01:36:00Z,28.8850,-90.0250,1013.1,11111222 
LOOP,urn:ioos:station:wmo:lopl1:1,2016-06-09T02:36:00Z,28.8850,-90.0250,1013.1,11111222 
LOOP,urn:ioos:station:wmo:lopl1:1,2016-06-09T03:36:00Z,28.8850,-90.0250,1013.1,11111222 
LOOP,urn:ioos:station:wmo:lopl1:1,2016-06-09T04:36:00Z,28.8850,-90.0250,1014.1,11111222 
LOOP,urn:ioos:station:wmo:lopl1:1,2016-06-09T05:36:00Z,28.8850,-90.0250,1014.1,11111222 
LOOP,urn:ioos:station:wmo:lopl1:1,2016-06-09T06:36:00Z,28.8850,-90.0250,1013.1,11111222 
LOOP,urn:ioos:station:wmo:lopl1:1,2016-06-09T07:36:00Z,28.8850,-90.0250,1013.1,11111222 
LOOP,urn:ioos:station:wmo:lopl1:1,2016-06-09T08:36:00Z,28.8850,-90.0250,1012.1,11111222 
LOOP,urn:ioos:station:wmo:lopl1:1,2016-06-09T09:36:00Z,28.8850,-90.0250,1013.1,11111222 
LOOP,urn:ioos:station:wmo:lopl1:1,2016-06-09T10:36:00Z,28.8850,-90.0250,1013.1,11111222 
LOOP,urn:ioos:station:wmo:lopl1:1,2016-06-09T11:36:00Z,28.8850,-90.0250,1014.1,11111222 
LOOP,urn:ioos:station:wmo:lopl1:1,2016-06-09T12:36:00Z,28.8850,-90.0250,1015.1,11111222 
LOOP,urn:ioos:station:wmo:lopl1:1,2016-06-09T13:36:00Z,28.8850,-90.0250,1015.1,11111222 
LOOP,urn:ioos:station:wmo:lopl1:1,2016-06-09T14:36:00Z,28.8850,-90.0250,1016.1,11111222 
LOOP,urn:ioos:station:wmo:lopl1:1,2016-06-09T15:36:00Z,28.8850,-90.0250,1016.1,11111222 
LOOP,urn:ioos:station:wmo:lopl1:1,2016-06-09T16:36:00Z,28.8850,-90.0250,1016.1,11111222 
LOOP,urn:ioos:station:wmo:lopl1:1,2016-06-09T17:36:00Z,28.8850,-90.0250,1015.1,11111222 
LOOP,urn:ioos:station:wmo:lopl1:1,2016-06-09T18:36:00Z,28.8850,-90.0250,1015.1,11111222 
LOOP,urn:ioos:station:wmo:lopl1:1,2016-06-09T19:36:00Z,28.8850,-90.0250,1014.1,11111222 
LOOP,urn:ioos:station:wmo:lopl1:1,2016-06-09T20:36:00Z,28.8850,-90.0250,1014.1,11111222 
LOOP,urn:ioos:station:wmo:lopl1:1,2016-06-09T21:36:00Z,28.8850,-90.0250,1013.1,11111222 
LOOP,urn:ioos:station:wmo:lopl1:1,2016-06-09T22:36:00Z,28.8850,-90.0250,1013.1,11111222 
LOOP,urn:ioos:station:wmo:lopl1:1,2016-06-09T23:36:00Z,28.8850,-90.0250,1013.1,11111222 
LOOP,urn:ioos:station:wmo:lopl1:1,2016-06-10T00:41:00Z,28.8850,-90.0250,1013.1,11111222 
LOOP,urn:ioos:station:wmo:lopl1:1,2016-06-10T01:41:00Z,28.8850,-90.0250,1014.1,11111222 
LOOP,urn:ioos:station:wmo:lopl1:1,2016-06-10T02:41:00Z,28.8850,-90.0250,1014.1,11111222 
LOOP,urn:ioos:station:wmo:lopl1:1,2016-06-10T03:41:00Z,28.8850,-90.0250,1014.1,11111222 
LOOP,urn:ioos:station:wmo:lopl1:1,2016-06-10T04:41:00Z,28.8850,-90.0250,1015.1,11111222 
LOOP,urn:ioos:station:wmo:lopl1:1,2016-06-10T05:41:00Z,28.8850,-90.0250,1014.1,11111222 
LOOP,urn:ioos:station:wmo:lopl1:1,2016-06-10T06:41:00Z,28.8850,-90.0250,1014.1,11111222 
LOOP,urn:ioos:station:wmo:lopl1:1,2016-06-10T07:46:00Z,28.8850,-90.0250,1014.1,11111222 
LOOP,urn:ioos:station:wmo:lopl1:1,2016-06-10T08:46:00Z,28.8850,-90.0250,1014.1,11111222 
LOOP,urn:ioos:station:wmo:lopl1:1,2016-06-10T09:46:00Z,28.8850,-90.0250,1014.1,11111222 
LOOP,urn:ioos:station:wmo:lopl1:1,2016-06-10T10:46:00Z,28.8850,-90.0250,1015.1,11111222 
LOOP,urn:ioos:station:wmo:lopl1:1,2016-06-10T11:46:00Z,28.8850,-90.0250,1015.1,11111222 
LOOP,urn:ioos:station:wmo:lopl1:1,2016-06-10T12:46:00Z,28.8850,-90.0250,1016.1,11111222 
LOOP,urn:ioos:station:wmo:lopl1:1,2016-06-10T13:56:00Z,28.8850,-90.0250,1017.1,11111222 
LOOP,urn:ioos:station:wmo:lopl1:1,2016-06-10T14:56:00Z,28.8850,-90.0250,1017.1,11111222 
LOOP,urn:ioos:station:wmo:lopl1:1,2016-06-10T15:56:00Z,28.8850,-90.0250,1017.1,11111222 
LOOP,urn:ioos:station:wmo:lopl1:1,2016-06-10T16:56:00Z,28.8850,-90.0250,1017.1,11111222 
LOOP,urn:ioos:station:wmo:lopl1:1,2016-06-10T17:56:00Z,28.8850,-90.0250,1017.1,11111222 
LOOP,urn:ioos:station:wmo:lopl1:1,2016-06-10T18:56:00Z,28.8850,-90.0250,1016.1,11111222 
LOOP,urn:ioos:station:wmo:lopl1:1,2016-06-10T19:56:00Z,28.8850,-90.0250,1016.1,11111222 
LOOP,urn:ioos:station:wmo:lopl1:1,2016-06-10T20:56:00Z,28.8850,-90.0250,1016.1,11111222 
LOOP,urn:ioos:station:wmo:lopl1:1,2016-06-10T21:56:00Z,28.8850,-90.0250,1016.1,11111222 
LOOP,urn:ioos:station:wmo:lopl1:1,2016-06-10T22:56:00Z,28.8850,-90.0250,1016.1,11111222 
LOOP,urn:ioos:station:wmo:lopl1:1,2016-06-10T23:56:00Z,28.8850,-90.0250,1016.1,11111222 
LOOP,urn:ioos:station:wmo:lopl1:1,2016-06-11T01:06:00Z,28.8850,-90.0250,1016.1,11111222 
LOOP,urn:ioos:station:wmo:lopl1:1,2016-06-11T02:06:00Z,28.8850,-90.0250,1016.1,11111222 
LOOP,urn:ioos:station:wmo:lopl1:1,2016-06-11T03:06:00Z,28.8850,-90.0250,1016.1,11111222 
LOOP,urn:ioos:station:wmo:lopl1:1,2016-06-11T04:06:00Z,28.8850,-90.0250,1017.1,11111222 
LOOP,urn:ioos:station:wmo:lopl1:1,2016-06-11T05:06:00Z,28.8850,-90.0250,1017.1,11111222 
LOOP,urn:ioos:station:wmo:lopl1:1,2016-06-11T06:06:00Z,28.8850,-90.0250,1017.1,11111222 
LOOP,urn:ioos:station:wmo:lopl1:1,2016-06-11T07:06:00Z,28.8850,-90.0250,1017.1,11111222 
LOOP,urn:ioos:station:wmo:lopl1:1,2016-06-11T07:16:00Z,28.8850,-90.0250,1017.1,11111222 
LOOP,urn:ioos:station:wmo:lopl1:1,2016-06-11T08:16:00Z,28.8850,-90.0250,1017.1,11111222 
LOOP,urn:ioos:station:wmo:lopl1:1,2016-06-11T09:16:00Z,28.8850,-90.0250,1017.1,11111222 
LOOP,urn:ioos:station:wmo:lopl1:1,2016-06-11T10:16:00Z,28.8850,-90.0250,1017.1,11111222 
LOOP,urn:ioos:station:wmo:lopl1:1,2016-06-11T10:41:00Z,28.8850,-90.0250,1018.1,11111222 
LOOP,urn:ioos:station:wmo:lopl1:1,2016-06-11T11:41:00Z,28.8850,-90.0250,1018.1,11111222 
LOOP,urn:ioos:station:wmo:lopl1:1,2016-06-11T12:41:00Z,28.8850,-90.0250,1019.1,11111222 
LOOP,urn:ioos:station:wmo:lopl1:1,2016-06-11T13:41:00Z,28.8850,-90.0250,1019.1,11111222 
LOOP,urn:ioos:station:wmo:lopl1:1,2016-06-11T14:51:00Z,28.8850,-90.0250,1019.1,11111222 
LOOP,urn:ioos:station:wmo:lopl1:1,2016-06-11T15:51:00Z,28.8850,-90.0250,1019.1,11111222 
LOOP,urn:ioos:station:wmo:lopl1:1,2016-06-11T16:51:00Z,28.8850,-90.0250,1019.1,11111222 
LOOP,urn:ioos:station:wmo:lopl1:1,2016-06-11T17:56:00Z,28.8850,-90.0250,1019.1,11111222 
LOOP,urn:ioos:station:wmo:lopl1:1,2016-06-11T18:56:00Z,28.8850,-90.0250,1019.1,11111222 
LOOP,urn:ioos:station:wmo:lopl1:1,2016-06-11T19:56:00Z,28.8850,-90.0250,1019.1,11111222 
LOOP,urn:ioos:station:wmo:lopl1:1,2016-06-11T20:56:00Z,28.8850,-90.0250,1019.1,11111222 
LOOP,urn:ioos:station:wmo:lopl1:1,2016-06-11T21:56:00Z,28.8850,-90.0250,1018.1,11111222 
LOOP,urn:ioos:station:wmo:lopl1:1,2016-06-11T22:56:00Z,28.8850,-90.0250,1018.1,11111222 
LOOP,urn:ioos:station:wmo:lopl1:1,2016-06-11T23:56:00Z,28.8850,-90.0250,1018.1,11111222 
LOOP,urn:ioos:station:wmo:lopl1:1,2016-06-12T00:56:00Z,28.8850,-90.0250,1019.1,11111222 
LOOP,urn:ioos:station:wmo:lopl1:1,2016-06-12T01:56:00Z,28.8850,-90.0250,1019.1,11111222 
LOOP,urn:ioos:station:wmo:lopl1:1,2016-06-12T02:56:00Z,28.8850,-90.0250,1020.1,11111222 
LOOP,urn:ioos:station:wmo:lopl1:1,2016-06-12T03:56:00Z,28.8850,-90.0250,1020.1,11111222 
LOOP,urn:ioos:station:wmo:lopl1:1,2016-06-12T04:56:00Z,28.8850,-90.0250,1020.1,11111222 